Regional Weather Roundup
Issued by NWS

Home | Current Version | Previous Version | Text Only | Print | Product List | Glossary Off
Versions: 1 2 3 4 5 6 7 8 9 10 11 12 13 14 15 16 17 18 19 20 21 22 23 24 25 26 27

000
ASUS45 KTFX 100010
RWRMT
MONTANA REGIONAL WEATHER ROUNDUP
NATIONAL WEATHER SERVICE GREAT FALLS MT
500 PM MST SAT DEC 09 2017

NOTE: "FAIR" INDICATES FEW OR NO CLOUDS BELOW 12000 FEET WITH NO
SIGNIFICANT WEATHER AND/OR OBSTRUCTIONS TO VISIBILITY.

MTZ001>007-043-100100-
WEST OF THE DIVIDE

CITY           SKY/WX    TMP DP  RH WIND       PRES   REMARKS
KALISPELL      CLOUDY    26  20  77 CALM      30.63S
MISSOULA       CLOUDY    21  18  88 S3        30.61S FOG
BUTTE          FAIR      21  13  71 S3        30.49S
MULLAN PASS    FAIR      34  12  40 VRB3      30.49R
ANACONDA         N/A     16  12  86 CALM      30.51R
DEER LODGE       N/A     18  16  93 CALM      30.54S
EUREKA           N/A     25  18  74 MISG      30.65S
HAMILTON         N/A     18  14  86 CALM      30.59R
LIBBY            N/A    N/A N/A N/A CALM      30.63R
RONAN            N/A     27  21  77 CALM      30.60S
$$

MTZ008-052>055-100100-
SOUTHWEST MONTANA

CITY           SKY/WX    TMP DP  RH WIND       PRES   REMARKS
BOZEMAN        FAIR      28  19  69 CALM      30.47R
DILLON         FAIR      27  14  58 CALM      30.48S
W YELLOWSTONE  FAIR      19  12  73 CALM      30.57R
ENNIS          CLOUDY    34  19  55 S9        30.53R WCI  26
THREE FORKS      N/A     18  13  80 CALM      30.41R
$$

MTZ009-010-012-014-046-048-049-054-100100-
EAST SLOPES AND CENTRAL MONTANA

CITY           SKY/WX    TMP DP  RH WIND       PRES   REMARKS
CUT BANK       FAIR      42   7  23 W16       30.26S
GREAT FALLS    FAIR      43   9  24 SW17      30.32R
MALMSTROM AFB  FAIR      43  11  28 SW20      30.31R
HELENA         FAIR      29  19  66 SW3       30.46R
BOWMANS CRNR   FAIR      38   9  30 S15       30.32R WCI  30
CHOTEAU          N/A     50   1  13 W16G23    30.30R
FAIRFIELD      FAIR      48   2  15 S3        30.29S
POWER          FAIR      40   8  26 SW10      30.29R
ULM            FAIR      42  10  28 S12       30.33R
$$

MTZ011-013-016-021-045-047-050-051-100100-
NORTH CENTRAL MONTANA

CITY           SKY/WX    TMP DP  RH WIND       PRES   REMARKS
HAVRE          FAIR      40  12  32 SW15      30.23R
LEWISTOWN      FAIR      35  20  54 SW13      30.30S WCI  26
N BAR RANCH    FAIR      43   5  21 NW9       30.29S
CHINOOK          N/A     39  10  30 N3        30.22R
DENTON         MOCLDY    42   8  24 MISG      30.25R
GEYSER         FAIR      49   7  17 W22G28    30.29R
GRASS RANGE    FAIR      47  11  23 W17       30.24R
STANFORD       FAIR      39   8  27 SW5       30.31R
$$

MTZ017>020-022>027-061-062-100100-
NORTHEAST MONTANA

CITY           SKY/WX    TMP DP  RH WIND       PRES   REMARKS
GLASGOW        FAIR      45  11  25 W15       30.14R
GLENDIVE       FAIR      45  17  32 W21       30.10S
JORDAN           N/A     37   8  30 W9        30.19R WCI  30
SIDNEY         FAIR      41  23  48 W9        30.06S
WOLF POINT     FAIR      46  15  28 W12       30.10R
MALTA          CLEAR     36   9  32 W10       30.19R WCI  28
PLENTYWOOD       N/A     39  25  56 W5        30.01R
POPLAR           N/A     48  16  27 W8        30.08R
$$

MTZ028>42-056>058-100100-
SOUTHCENTRAL AND SOUTHEAST MONTANA

CITY           SKY/WX    TMP DP  RH WIND       PRES   REMARKS
BAKER          FAIR      43  22  43 W18       30.12S
BILLINGS       FAIR      48  10  21 W16       30.29F
LIVINGSTON     FAIR      44  12  27 W16       30.40R
MILES CITY     FAIR      44  13  28 W9        30.19R
BIG TIMBER     CLEAR     46   7  19 W26G35    30.36R
FORSYTH          N/A     52  10  19 W7        30.22R
HARLOWTON      MOCLDY    44   8  23 NW24G30   30.34R
LAUREL           N/A     37  21  52 SW10      30.32  WCI  30
$$

REGIONAL REPORTS...DAKOTAS

CITY           SKY/WX    TMP DP  RH WIND       PRES   REMARKS
WILLISTON      FAIR      42  24  49 W12       30.00F
MINOT          FAIR      40  24  53 W25G31    29.86R
DICKINSON      FAIR      40  24  53 W20       29.99R
BEACH          FAIR      39  21  48 W14       30.12R WCI  31
CROSBY         FAIR      37  25  60 W20G26    29.95R WCI  27
TIOGA          FAIR      36  25  64 W14G20    29.96R WCI  27
WATFORD CITY   FAIR      43  23  45 W12       30.01S
BISMARCK       FAIR      40  27  59 W14       29.93S
GRAND FORKS    FAIR      28  24  85 S9        29.78S WCI  19
FARGO          FAIR      27  22  81 S15       29.86F WCI  15
BUFFALO SD       N/A     44  22  41 W26G35    30.03S
RAPID CITY     FAIR      53   9  17 NW21G26   30.12S
$$

REGIONAL REPORTS...WYOMING/IDAHO/WASHINGTON

CITY           SKY/WX    TMP DP  RH WIND       PRES   REMARKS
GILLETTE         N/A     39  15  37 MISG      30.26R
SHERIDAN       FAIR      35  13  40 SW3       30.30R
BUFFALO WY     FAIR      42   7  23 W6        30.32R
CODY           FAIR      30  18  60 VRB6      30.37R WCI  24
YELLOWSTONE LA   N/A     19  17  92 CALM      30.55S
IDAHO FALLS    FAIR      12  11  95 NW3       30.62S
SALMON         CLOUDY    19  15  84 SW3       30.73R
BOISE          CLOUDY    28  20  71 S6        30.69S WCI  22
SPOKANE        CLOUDY    29  25  85 NE5       30.61S
$$

REGIONAL REPORTS...ALBERTA

CITY           SKY/WX    TMP DP  RH WIND       PRES   REMARKS
EDMONTON       CLEAR     36  19  51 W9        30.07R WCI  29
CALGARY        MOCLDY    55   3  12 W10G18    30.18F
LETHBRIDGE     PTCLDY    46   9  21 W18       30.22R
MEDICINE HAT   PTCLDY    34  18  51 SW8       30.19R WCI  27
$$

REGIONAL REPORTS...SASKATCHEWAN

CITY           SKY/WX    TMP DP  RH WIND       PRES   REMARKS
SWIFT CURRENT  CLEAR     39  19  45 W16G22    30.08R WCI  30
REGINA         PTCLDY    34  25  69 NW9       29.95R WCI  26
SASKATOON      PTCLDY    36  25  64 NW12      29.97R WCI  27
$$




USA.gov is the U.S. government's official web portal to all federal, state and local government web resources and services.